User: anonymous
Location: Meriden
(44.0740°N, 93.3870°W)
Time: 11:25:28
(UTC-05:00)
Language:

AO-27 - Orbit

View from above orbital plane
View from above orbital plane
View from above satellite
View from above satellite

Ground track
Ground track

The orbit data is extracted from the following two-line orbital elements,

1 22825U 93061C   14208.91751304  .00000062  00000-0  41440-4 0  7244
2 22825 098.6640 154.7856 0008772 171.1496 229.7410 14.29731169 86601
Epoch (UTC): 27 July 2014 22:01:13
Eccentricity: 0.0008772
inclination: 98.6640°
perigee height: 786 km
apogee height: 799 km
right ascension of ascending node: 154.7856°
argument of perigee: 171.1496°
revolutions per day: 14.29731169
mean anomaly at epoch: 229.7410°
orbit number at epoch: 8660

The dashed part of the orbit path shows where the satellite is in the earth's shadow,  

DLR